This is the latest recevied weather packets stored in our database for station/object SP1BMW-13. If no packets are shown the sender has not sent any weather packets the latest 10 day(s).
| Time | Temp. | Humidity | Pressure | Rain* | Wind** | Luminosity | Snow |
|---|---|---|---|---|---|---|---|
| 1787892137 | 17.78° C | 61% | 1012.7 hPa | 0 mm | 1.79 m/s, 252° | 19 W/m² | - |
| 1787892078 | 17.78° C | 61% | 1012.7 hPa | 0 mm | 1.34 m/s, 126° | 18 W/m² | - |
| 1787892017 | 17.78° C | 61% | 1012.7 hPa | 0 mm | 1.34 m/s, 92° | 18 W/m² | - |
| 1787891957 | 17.78° C | 61% | 1012.7 hPa | 0 mm | 2.24 m/s, 39° | 17 W/m² | - |
| 1787891897 | 17.78° C | 62% | 1012.6 hPa | 0 mm | 0.89 m/s, 96° | 16 W/m² | - |
| 1787891838 | 17.78° C | 61% | 1012.7 hPa | 0 mm | 0.89 m/s, 86° | 15 W/m² | - |
| 1787891778 | 17.78° C | 61% | 1012.7 hPa | 0 mm | 0.89 m/s, 18° | 14 W/m² | - |
| 1787891718 | 17.78° C | 61% | 1012.6 hPa | 0 mm | 0.89 m/s, 85° | 13 W/m² | - |
| 1787891658 | 17.78° C | 61% | 1012.5 hPa | 0 mm | 0.89 m/s, 86° | 13 W/m² | - |
| 1787891597 | 17.78° C | 61% | 1012.7 hPa | 0 mm | 1.34 m/s, 359° | 12 W/m² | - |
| 1787891537 | 17.78° C | 61% | 1012.7 hPa | 0 mm | 1.79 m/s, 69° | 11 W/m² | - |
| 1787891478 | 17.78° C | 61% | 1012.8 hPa | 0 mm | 0.89 m/s, 54° | 11 W/m² | - |
| 1787891418 | 17.78° C | 61% | 1012.7 hPa | 0 mm | 0.89 m/s, 160° | 10 W/m² | - |
| 1787891358 | 17.78° C | 61% | 1012.8 hPa | 0 mm | 0.89 m/s, 81° | 10 W/m² | - |
| 1787891298 | 17.78° C | 61% | 1012.9 hPa | 0 mm | 1.34 m/s, 55° | 9 W/m² | - |
| 1787891238 | 17.78° C | 61% | 1012.8 hPa | 0 mm | 0.89 m/s, 105° | 9 W/m² | - |
| 1787891178 | 17.78° C | 61% | 1012.8 hPa | 0 mm | 1.34 m/s, 55° | 8 W/m² | - |
| 1787891117 | 17.78° C | 61% | 1012.9 hPa | 0 mm | 0.89 m/s, 149° | 7 W/m² | - |
| 1787891058 | 17.78° C | 61% | 1012.8 hPa | 0 mm | 0.89 m/s, 74° | 7 W/m² | - |
| 1787890998 | 17.78° C | 61% | 1012.8 hPa | 0 mm | 0.89 m/s, 46° | 7 W/m² | - |
| 1787890938 | 17.78° C | 61% | 1012.8 hPa | 0 mm | 1.79 m/s, 260° | 6 W/m² | - |
| 1787890878 | 17.78° C | 60% | 1012.9 hPa | 0 mm | 1.34 m/s, 82° | 6 W/m² | - |
| 1787890817 | 17.78° C | 61% | 1012.7 hPa | 0 mm | 0.89 m/s, 40° | 5 W/m² | - |
| 1787890758 | 17.78° C | 61% | 1012.8 hPa | 0 mm | 2.68 m/s, 110° | 5 W/m² | - |
| 1787890698 | 17.78° C | 61% | 1012.8 hPa | 0 mm | 2.68 m/s, 121° | 5 W/m² | - |
* Rain latest hour (hover to see other rain measurements)
** Current wind speed in m/s (hover to see current wind gust speed)